User: anonymous   Login
Location: Brno
(49.2000°N, 16.6330°E)
Time: 05:04:52
(UTC+02:00)
Language:

Meteor 1-4 Rocket - Orbit

View from above orbital plane
View from above orbital plane
View from above satellite
View from above satellite

Ground track
Ground track

The orbit data is extracted from the following two-line orbital elements,

1 04394U 70037B   16150.22429800  .00002423  00000-0  88303-4 0  9994
2 04394  81.2428 105.2562 0042007 356.0211   4.0683 15.26913228506156
Epoch (UTC): 29 May 2016 05:22:59
Eccentricity: 0.0042007
inclination: 81.2428°
perigee height: 456 km
apogee height: 514 km
right ascension of ascending node: 105.2562°
argument of perigee: 356.0211°
revolutions per day: 15.26913228
mean anomaly at epoch: 4.0683°
orbit number at epoch: 50615

The dashed part of the orbit path shows where the satellite is in the earth's shadow,  

DLR